Time,TemperatureF,DewpointF,PressureIn,WindDirection,WindDirectionDegrees,WindSpeedMPH,WindSpeedGustMPH,Humidity,HourlyPrecipIn,Conditions,Clouds,dailyrainin,SolarRadiationWatts/m^2,SoftwareType,DateUTC
2013-04-01 00:00:00,42.9,42.4,29.80,West,272,2.0,4.0,98,0.00,,CLR,0.17,0.00,VWS V14.01,2013-04-01 04:00:00,
2013-04-01 00:02:00,43.1,42.6,29.80,North,0,2.0,4.0,98,0.00,,CLR,0.17,0.00,VWS V14.01,2013-04-01 04:02:00,
2013-04-01 00:07:00,43.1,42.6,29.80,NW,311,2.0,8.0,98,0.00,,CLR,0.00,0.00,VWS V14.01,2013-04-01 04:07:00,
2013-04-01 00:12:00,43.2,42.4,29.80,West,272,2.0,8.0,97,0.00,,CLR,0.00,0.00,VWS V14.01,2013-04-01 04:12:00,
2013-04-01 00:13:00,43.2,42.4,29.80,West,272,0.0,2.0,97,0.00,,CLR,0.00,0.00,VWS V14.01,2013-04-01 04:13:00,
2013-04-01 00:18:00,43.5,42.7,29.80,NNW,329,3.0,8.0,97,0.00,,CLR,0.00,0.00,VWS V14.01,2013-04-01 04:18:00,
2013-04-01 00:23:00,43.9,42.6,29.80,SW,224,3.0,4.0,95,0.00,,CLR,0.00,0.00,VWS V14.01,2013-04-01 04:23:00,
2013-04-01 00:28:00,44.2,42.6,29.80,WSW,254,3.0,5.0,94,0.00,,CLR,0.00,0.00,VWS V14.01,2013-04-01 04:28:00,
2013-04-01 00:33:00,44.2,41.7,29.79,SW,224,4.0,4.0,91,0.00,,CLR,0.00,0.00,VWS V14.01,2013-04-01 04:33:00,
2013-04-01 00:38:00,44.2,41.2,29.79,WSW,256,1.0,5.0,89,0.00,,CLR,0.00,0.00,VWS V14.01,2013-04-01 04:38:00,
2013-04-01 00:43:00,44.7,41.1,29.79,NW,309,0.0,2.0,87,0.00,,CLR,0.00,0.00,VWS V14.01,2013-04-01 04:43:00,
2013-04-01 00:48:00,44.4,40.2,29.80,WNW,288,0.0,2.0,85,0.00,,CLR,0.00,0.00,VWS V14.01,2013-04-01 04:48:00,
2013-04-01 00:53:00,43.8,39.6,29.80,SW,226,3.0,5.0,85,0.00,,CLR,0.00,0.00,VWS V14.01,2013-04-01 04:53:00,
2013-04-01 00:58:00,43.9,39.7,29.80,WSW,258,1.0,5.0,85,0.00,,CLR,0.00,0.00,VWS V14.01,2013-04-01 04:58:00,
2013-04-01 01:04:00,44.2,39.4,29.80,West,281,0.0,3.0,83,0.00,,CLR,0.00,0.00,VWS V14.01,2013-04-01 05:04:00,
2013-04-01 01:09:00,44.5,39.0,29.80,NNW,339,1.0,3.0,81,0.00,,CLR,0.00,0.00,VWS V14.01,2013-04-01 05:09:00,
2013-04-01 01:14:00,44.8,38.4,29.80,SW,217,2.0,3.0,78,0.00,,CLR,0.00,0.00,VWS V14.01,2013-04-01 05:14:00,
2013-04-01 01:19:00,44.4,38.3,29.80,SW,222,2.0,3.0,79,0.00,,CLR,0.00,0.00,VWS V14.01,2013-04-01 05:19:00,
2013-04-01 01:24:00,44.4,38.3,29.80,SSW,196,3.0,5.0,79,0.00,,CLR,0.00,0.00,VWS V14.01,2013-04-01 05:24:00,
2013-04-01 01:29:00,44.5,38.1,29.80,SSW,196,2.0,5.0,78,0.00,,CLR,0.00,0.00,VWS V14.01,2013-04-01 05:29:00,
2013-04-01 01:34:00,44.4,38.3,29.80,South,191,3.0,5.0,79,0.00,,CLR,0.00,0.00,VWS V14.01,2013-04-01 05:34:00,
2013-04-01 01:39:00,44.5,38.1,29.80,SW,219,5.0,6.0,78,0.00,,CLR,0.00,0.00,VWS V14.01,2013-04-01 05:39:00,
2013-04-01 01:44:00,44.8,38.4,29.80,SW,224,0.0,3.0,78,0.00,,CLR,0.00,0.00,VWS V14.01,2013-04-01 05:44:00,
2013-04-01 01:49:00,44.7,38.3,29.80,SW,236,0.0,3.0,78,0.00,,CLR,0.00,0.00,VWS V14.01,2013-04-01 05:49:00,
2013-04-01 01:54:00,44.4,38.0,29.80,WSW,237,0.0,2.0,78,0.00,,CLR,0.00,0.00,VWS V14.01,2013-04-01 05:54:00,
2013-04-01 01:59:00,44.2,37.8,29.80,WSW,237,0.0,3.0,78,0.00,,CLR,0.00,0.00,VWS V14.01,2013-04-01 05:59:00,
2013-04-01 02:04:00,43.6,37.5,29.80,WSW,237,0.0,0.0,79,0.00,,CLR,0.00,0.00,VWS V14.01,2013-04-01 06:04:00,
2013-04-01 02:10:00,43.6,37.5,29.80,SW,234,0.0,2.0,79,0.00,,CLR,0.00,0.00,VWS V14.01,2013-04-01 06:10:00,
2013-04-01 02:15:00,43.1,37.0,29.80,SW,236,0.0,0.0,79,0.00,,CLR,0.00,0.00,VWS V14.01,2013-04-01 06:15:00,
2013-04-01 02:20:00,42.3,36.9,29.80,SW,227,2.0,3.0,81,0.00,,CLR,0.00,0.00,VWS V14.01,2013-04-01 06:20:00,
2013-04-01 02:25:00,42.5,37.4,29.80,SSW,213,2.0,3.0,82,0.00,,CLR,0.00,0.00,VWS V14.01,2013-04-01 06:25:00,
2013-04-01 02:30:00,42.5,37.4,29.80,SSW,213,3.0,3.0,82,0.00,,CLR,0.00,0.00,VWS V14.01,2013-04-01 06:30:00,
2013-04-01 02:35:00,42.3,37.5,29.80,SW,232,0.0,2.0,83,0.00,,CLR,0.00,0.00,VWS V14.01,2013-04-01 06:35:00,
2013-04-01 02:40:00,42.1,37.0,29.80,SSW,192,3.0,3.0,82,0.00,,CLR,0.00,0.00,VWS V14.01,2013-04-01 06:40:00,
2013-04-01 02:45:00,42.3,38.1,29.80,SW,222,3.0,3.0,85,0.00,,CLR,0.00,0.00,VWS V14.01,2013-04-01 06:45:00,
2013-04-01 02:51:00,42.3,38.1,29.80,SW,216,0.0,3.0,85,0.00,,CLR,0.00,0.00,VWS V14.01,2013-04-01 06:51:00,
2013-04-01 02:56:00,42.1,37.6,29.80,SW,216,0.0,0.0,84,0.00,,CLR,0.00,0.00,VWS V14.01,2013-04-01 06:56:00,
2013-04-01 03:01:00,41.5,37.3,29.80,SW,216,0.0,0.0,85,0.00,,CLR,0.00,0.00,VWS V14.01,2013-04-01 07:01:00,
2013-04-01 03:06:00,41.2,37.3,29.80,SW,216,0.0,0.0,86,0.00,,CLR,0.00,0.00,VWS V14.01,2013-04-01 07:06:00,
2013-04-01 03:11:00,40.8,36.9,29.80,SW,216,0.0,0.0,86,0.00,,CLR,0.00,0.00,VWS V14.01,2013-04-01 07:11:00,
2013-04-01 03:16:00,40.2,36.3,29.81,SW,216,0.0,0.0,86,0.00,,CLR,0.00,0.00,VWS V14.01,2013-04-01 07:16:00,
2013-04-01 03:21:00,39.9,36.6,29.81,SW,216,0.0,0.0,88,0.00,,CLR,0.00,0.00,VWS V14.01,2013-04-01 07:21:00,
2013-04-01 03:26:00,39.8,36.5,29.81,SW,216,2.0,3.0,88,0.00,,CLR,0.00,0.00,VWS V14.01,2013-04-01 07:26:00,
2013-04-01 03:32:00,40.1,37.1,29.80,South,189,0.0,5.0,89,0.00,,CLR,0.00,0.00,VWS V14.01,2013-04-01 07:32:00,
2013-04-01 03:37:00,39.9,36.9,29.80,South,189,0.0,0.0,89,0.00,,CLR,0.00,0.00,VWS V14.01,2013-04-01 07:37:00,
2013-04-01 03:42:00,39.6,36.6,29.80,South,189,0.0,0.0,89,0.00,,CLR,0.00,0.00,VWS V14.01,2013-04-01 07:42:00,
2013-04-01 03:47:00,39.2,36.2,29.80,South,189,0.0,0.0,89,0.00,,CLR,0.00,0.00,VWS V14.01,2013-04-01 07:47:00,
2013-04-01 03:52:00,39.1,36.4,29.80,South,189,0.0,0.0,90,0.00,,CLR,0.00,0.00,VWS V14.01,2013-04-01 07:52:00,
2013-04-01 03:57:00,38.9,36.2,29.80,South,189,0.0,1.0,90,0.00,,CLR,0.00,0.00,VWS V14.01,2013-04-01 07:57:00,
2013-04-01 04:02:00,38.6,35.9,29.80,South,189,0.0,0.0,90,0.00,,CLR,0.00,0.00,VWS V14.01,2013-04-01 08:02:00,
2013-04-01 04:07:00,38.6,36.2,29.80,WSW,251,4.0,4.0,91,0.00,,CLR,0.00,0.00,VWS V14.01,2013-04-01 08:07:00,
2013-04-01 04:12:00,39.6,37.5,29.80,SW,233,4.0,5.0,92,0.00,,CLR,0.00,0.00,VWS V14.01,2013-04-01 08:12:00,
2013-04-01 04:18:00,40.8,38.7,29.78,SSW,206,11.0,11.0,92,0.00,,CLR,0.00,0.00,VWS V14.01,2013-04-01 08:18:00,
2013-04-01 04:23:00,41.5,38.5,29.78,SSW,209,2.0,6.0,89,0.00,,CLR,0.00,0.00,VWS V14.01,2013-04-01 08:23:00,
2013-04-01 04:28:00,41.9,38.0,29.78,SW,220,4.0,10.0,86,0.00,,CLR,0.00,0.00,VWS V14.01,2013-04-01 08:28:00,
2013-04-01 04:33:00,42.1,37.6,29.77,SSW,206,1.0,5.0,84,0.00,,CLR,0.00,0.00,VWS V14.01,2013-04-01 08:33:00,
2013-04-01 04:39:00,41.9,37.4,29.77,WSW,250,0.0,5.0,84,0.00,,CLR,0.00,0.00,VWS V14.01,2013-04-01 08:39:00,
2013-04-01 04:44:00,41.8,37.0,29.77,WSW,254,0.0,3.0,83,0.00,,CLR,0.00,0.00,VWS V14.01,2013-04-01 08:44:00,
2013-04-01 04:49:00,41.6,36.8,29.78,SW,220,1.0,3.0,83,0.00,,CLR,0.00,0.00,VWS V14.01,2013-04-01 08:49:00,
2013-04-01 04:54:00,41.5,36.7,29.78,South,185,3.0,4.0,83,0.00,,CLR,0.00,0.00,VWS V14.01,2013-04-01 08:54:00,
2013-04-01 04:59:00,41.6,36.8,29.78,SSW,212,5.0,6.0,83,0.00,,CLR,0.00,0.00,VWS V14.01,2013-04-01 08:59:00,
2013-04-01 05:04:00,41.9,36.8,29.77,SW,220,3.0,7.0,82,0.00,,CLR,0.00,0.00,VWS V14.01,2013-04-01 09:04:00,
2013-04-01 05:09:00,42.1,37.0,29.77,SSW,205,6.0,8.0,82,0.00,,CLR,0.00,0.00,VWS V14.01,2013-04-01 09:09:00,
2013-04-01 05:14:00,42.5,37.1,29.77,SW,219,3.0,9.0,81,0.00,,CLR,0.00,0.00,VWS V14.01,2013-04-01 09:14:00,
2013-04-01 05:19:00,42.6,36.9,29.76,WSW,257,4.0,11.0,80,0.00,,CLR,0.00,0.00,VWS V14.01,2013-04-01 09:19:00,
2013-04-01 05:24:00,42.9,36.8,29.76,South,176,8.0,9.0,79,0.00,,CLR,0.00,0.00,VWS V14.01,2013-04-01 09:24:00,
2013-04-01 05:29:00,43.2,36.8,29.76,SSW,193,5.0,13.0,78,0.00,,CLR,0.00,0.00,VWS V14.01,2013-04-01 09:29:00,
2013-04-01 05:34:00,43.3,36.6,29.76,SW,219,3.0,8.0,77,0.00,,CLR,0.00,0.00,VWS V14.01,2013-04-01 09:34:00,
2013-04-01 05:40:00,43.5,36.8,29.76,West,260,1.0,10.0,77,0.00,,CLR,0.00,0.00,VWS V14.01,2013-04-01 09:40:00,
2013-04-01 05:45:00,43.3,36.9,29.76,NNW,339,0.0,1.0,78,0.00,,CLR,0.00,0.00,VWS V14.01,2013-04-01 09:45:00,
2013-04-01 05:50:00,43.1,37.0,29.76,SW,220,2.0,2.0,79,0.00,,CLR,0.00,0.00,VWS V14.01,2013-04-01 09:50:00,
2013-04-01 05:55:00,43.1,37.4,29.76,SW,226,1.0,2.0,80,0.00,,CLR,0.00,0.00,VWS V14.01,2013-04-01 09:55:00,
2013-04-01 06:00:00,43.1,37.0,29.76,SSW,192,0.0,5.0,79,0.00,,CLR,0.00,0.00,VWS V14.01,2013-04-01 10:00:00,
2013-04-01 06:05:00,43.2,37.1,29.77,South,191,0.0,0.0,79,0.00,,CLR,0.00,0.00,VWS V14.01,2013-04-01 10:05:00,
2013-04-01 06:10:00,42.9,37.2,29.77,South,191,0.0,0.0,80,0.00,,CLR,0.00,0.00,VWS V14.01,2013-04-01 10:10:00,
2013-04-01 06:15:00,42.6,37.2,29.77,SW,230,0.0,3.0,81,0.00,,CLR,0.00,0.00,VWS V14.01,2013-04-01 10:15:00,
2013-04-01 06:21:00,42.8,37.4,29.78,South,178,7.0,7.0,81,0.00,,CLR,0.00,0.00,VWS V14.01,2013-04-01 10:21:00,
2013-04-01 06:26:00,42.9,37.2,29.78,SSW,203,5.0,7.0,80,0.00,,CLR,0.00,0.00,VWS V14.01,2013-04-01 10:26:00,
2013-04-01 06:31:00,43.1,37.4,29.78,South,188,4.0,7.0,80,0.00,,CLR,0.00,0.00,VWS V14.01,2013-04-01 10:31:00,
2013-04-01 06:36:00,43.3,37.2,29.78,South,178,5.0,7.0,79,0.00,,CLR,0.00,0.00,VWS V14.01,2013-04-01 10:36:00,
2013-04-01 06:41:00,43.6,37.5,29.78,SSW,196,2.0,8.0,79,0.00,,CLR,0.00,0.00,VWS V14.01,2013-04-01 10:41:00,
2013-04-01 06:46:00,43.6,37.2,29.77,SW,215,2.0,6.0,78,0.00,,CLR,0.00,0.00,VWS V14.01,2013-04-01 10:46:00,
2013-04-01 06:52:00,43.9,37.2,29.77,SW,219,5.0,8.0,77,0.00,,CLR,0.00,0.00,VWS V14.01,2013-04-01 10:52:00,
2013-04-01 06:57:00,44.1,37.4,29.77,SSW,205,2.0,7.0,77,0.00,,CLR,0.00,0.00,VWS V14.01,2013-04-01 10:57:00,
2013-04-01 07:02:00,44.2,37.1,29.77,West,270,0.0,7.0,76,0.00,,CLR,0.00,0.00,VWS V14.01,2013-04-01 11:02:00,
2013-04-01 07:07:00,44.2,37.5,29.77,SW,222,1.0,5.0,77,0.00,,CLR,0.00,0.00,VWS V14.01,2013-04-01 11:07:00,
2013-04-01 07:12:00,44.4,37.7,29.77,SSW,208,1.0,8.0,77,0.00,,CLR,0.00,5.00,VWS V14.01,2013-04-01 11:12:00,
2013-04-01 07:17:00,44.4,37.3,29.78,SSW,206,3.0,7.0,76,0.00,,CLR,0.00,7.00,VWS V14.01,2013-04-01 11:17:00,
2013-04-01 07:22:00,44.4,37.3,29.78,SSW,208,1.0,3.0,76,0.00,,CLR,0.00,7.00,VWS V14.01,2013-04-01 11:22:00,
2013-04-01 07:27:00,44.4,37.7,29.78,ENE,64,0.0,3.0,77,0.00,,CLR,0.00,9.00,VWS V14.01,2013-04-01 11:27:00,
2013-04-01 07:32:00,44.1,37.4,29.78,SSW,200,5.0,5.0,77,0.00,,CLR,0.00,14.00,VWS V14.01,2013-04-01 11:32:00,
2013-04-01 07:37:00,44.2,37.5,29.78,SSW,203,4.0,6.0,77,0.00,,CLR,0.00,16.00,VWS V14.01,2013-04-01 11:37:00,
2013-04-01 07:42:00,44.4,37.7,29.78,SSW,195,3.0,6.0,77,0.00,,CLR,0.00,16.00,VWS V14.01,2013-04-01 11:42:00,
2013-04-01 07:47:00,44.4,37.7,29.78,SSW,206,6.0,7.0,77,0.00,,CLR,0.00,21.00,VWS V14.01,2013-04-01 11:47:00,
2013-04-01 07:53:00,44.5,37.4,29.78,SSW,210,3.0,5.0,76,0.00,,CLR,0.00,18.00,VWS V14.01,2013-04-01 11:53:00,
2013-04-01 07:58:00,44.7,37.6,29.78,SSW,198,5.0,7.0,76,0.00,,CLR,0.00,26.00,VWS V14.01,2013-04-01 11:58:00,
2013-04-01 08:03:00,44.8,37.4,29.78,South,176,6.0,7.0,75,0.00,,CLR,0.00,21.00,VWS V14.01,2013-04-01 12:03:00,
2013-04-01 08:08:00,44.8,37.4,29.78,SSW,192,5.0,8.0,75,0.00,,CLR,0.00,30.00,VWS V14.01,2013-04-01 12:08:00,
2013-04-01 08:13:00,45.0,37.6,29.78,South,184,5.0,7.0,75,0.00,,CLR,0.00,40.00,VWS V14.01,2013-04-01 12:13:00,
2013-04-01 08:18:00,45.0,37.6,29.78,SSW,212,6.0,11.0,75,0.00,,CLR,0.00,49.00,VWS V14.01,2013-04-01 12:18:00,
2013-04-01 08:23:00,45.1,38.0,29.78,SSW,209,6.0,6.0,76,0.00,,CLR,0.00,49.00,VWS V14.01,2013-04-01 12:23:00,
2013-04-01 08:28:00,45.1,37.7,29.78,South,175,5.0,11.0,75,0.00,,CLR,0.00,44.00,VWS V14.01,2013-04-01 12:28:00,
2013-04-01 08:33:00,45.2,37.8,29.78,SW,233,1.0,6.0,75,0.00,,CLR,0.00,26.00,VWS V14.01,2013-04-01 12:33:00,
2013-04-01 08:38:00,45.2,38.1,29.78,North,4,1.0,6.0,76,0.00,,CLR,0.00,28.00,VWS V14.01,2013-04-01 12:38:00,
2013-04-01 08:43:00,45.1,38.3,29.78,NE,45,0.0,2.0,77,0.00,,CLR,0.00,33.00,VWS V14.01,2013-04-01 12:43:00,
2013-04-01 08:49:00,45.0,38.6,29.79,ENE,62,0.0,6.0,78,0.00,,CLR,0.00,26.00,VWS V14.01,2013-04-01 12:49:00,
2013-04-01 08:54:00,44.7,38.6,29.79,ENE,62,0.0,1.0,79,0.00,,CLR,0.00,30.00,VWS V14.01,2013-04-01 12:54:00,
2013-04-01 08:59:00,44.5,39.0,29.79,WNW,295,2.0,7.0,81,0.00,,CLR,0.00,88.00,VWS V14.01,2013-04-01 12:59:00,
2013-04-01 09:04:00,44.5,39.7,29.79,SW,232,2.0,3.0,83,0.00,,CLR,0.00,113.00,VWS V14.01,2013-04-01 13:04:00,
2013-04-01 09:09:00,45.1,40.2,29.79,SW,217,0.0,4.0,83,0.00,,CLR,0.00,79.00,VWS V14.01,2013-04-01 13:09:00,
2013-04-01 09:14:00,45.2,40.7,29.79,SSW,203,2.0,5.0,84,0.00,,CLR,0.00,55.00,VWS V14.01,2013-04-01 13:14:00,
2013-04-01 09:19:00,45.4,40.9,29.79,SSW,203,2.0,5.0,84,0.00,,CLR,0.00,88.00,VWS V14.01,2013-04-01 13:19:00,
2013-04-01 09:24:00,45.4,41.2,29.79,SSW,203,0.0,1.0,85,0.00,,CLR,0.00,76.00,VWS V14.01,2013-04-01 13:24:00,
2013-04-01 09:29:00,45.8,41.9,29.79,SSW,203,0.0,2.0,86,0.00,,CLR,0.00,70.00,VWS V14.01,2013-04-01 13:29:00,
2013-04-01 09:34:00,45.8,41.9,29.80,SSW,203,2.0,2.0,86,0.00,,CLR,0.00,106.00,VWS V14.01,2013-04-01 13:34:00,
2013-04-01 09:40:00,46.0,41.8,29.80,South,191,2.0,6.0,85,0.00,,CLR,0.00,143.00,VWS V14.01,2013-04-01 13:40:00,
2013-04-01 09:45:00,46.4,41.8,29.80,South,179,4.0,4.0,84,0.00,,CLR,0.00,99.00,VWS V14.01,2013-04-01 13:45:00,
2013-04-01 09:50:00,46.6,41.7,29.81,South,188,2.0,5.0,83,0.00,,CLR,0.00,72.00,VWS V14.01,2013-04-01 13:50:00,
2013-04-01 09:55:00,46.9,41.1,29.81,WSW,243,1.0,8.0,80,0.00,,CLR,0.00,72.00,VWS V14.01,2013-04-01 13:55:00,
2013-04-01 10:00:00,47.3,40.1,29.81,WNW,291,2.0,8.0,76,0.00,,CLR,0.00,83.00,VWS V14.01,2013-04-01 14:00:00,
2013-04-01 10:05:00,47.8,40.3,29.81,North,359,3.0,3.0,75,0.00,,CLR,0.00,84.00,VWS V14.01,2013-04-01 14:05:00,
2013-04-01 10:11:00,48.1,37.7,29.81,NW,320,2.0,13.0,67,0.00,,CLR,0.00,109.00,VWS V14.01,2013-04-01 14:11:00,
2013-04-01 10:16:00,48.6,37.8,29.81,NNW,335,5.0,10.0,66,0.00,,CLR,0.00,111.00,VWS V14.01,2013-04-01 14:16:00,
2013-04-01 10:21:00,48.9,38.1,29.80,NNW,337,0.0,10.0,66,0.00,,CLR,0.00,95.00,VWS V14.01,2013-04-01 14:21:00,
2013-04-01 10:26:00,49.2,37.6,29.80,North,0,7.0,12.0,64,0.00,,CLR,0.00,88.00,VWS V14.01,2013-04-01 14:26:00,
2013-04-01 10:31:00,49.5,37.0,29.80,NW,311,14.0,17.0,62,0.00,,CLR,0.00,74.00,VWS V14.01,2013-04-01 14:31:00,
2013-04-01 10:36:00,49.7,37.2,29.80,North,354,8.0,17.0,62,0.00,,CLR,0.00,91.00,VWS V14.01,2013-04-01 14:36:00,
2013-04-01 10:41:00,49.8,37.3,29.80,North,359,8.0,17.0,62,0.00,,CLR,0.00,165.00,VWS V14.01,2013-04-01 14:41:00,
2013-04-01 10:47:00,50.1,36.8,29.80,WNW,292,5.0,14.0,60,0.00,,CLR,0.00,150.00,VWS V14.01,2013-04-01 14:47:00,
2013-04-01 10:52:00,50.6,37.2,29.80,NNW,337,6.0,14.0,60,0.00,,CLR,0.00,162.00,VWS V14.01,2013-04-01 14:52:00,
2013-04-01 10:57:00,50.9,36.7,29.80,North,0,8.0,12.0,58,0.00,,CLR,0.00,139.00,VWS V14.01,2013-04-01 14:57:00,
2013-04-01 11:02:00,51.0,35.4,29.79,North,349,7.0,12.0,55,0.00,,CLR,0.00,209.00,VWS V14.01,2013-04-01 15:02:00,
2013-04-01 11:07:00,51.5,35.4,29.79,North,0,6.0,17.0,54,0.00,,CLR,0.00,143.00,VWS V14.01,2013-04-01 15:07:00,
2013-04-01 11:12:00,52.1,36.9,29.79,NNW,329,2.0,17.0,56,0.00,,CLR,0.00,787.00,VWS V14.01,2013-04-01 15:12:00,
2013-04-01 11:17:00,52.5,35.9,29.79,North,0,9.0,11.0,53,0.00,,CLR,0.00,194.00,VWS V14.01,2013-04-01 15:17:00,
2013-04-01 11:22:00,52.3,36.2,29.79,North,0,8.0,12.0,54,0.00,,CLR,0.00,218.00,VWS V14.01,2013-04-01 15:22:00,
2013-04-01 11:27:00,52.3,35.2,29.79,NW,326,6.0,13.0,52,0.00,,CLR,0.00,102.00,VWS V14.01,2013-04-01 15:27:00,
2013-04-01 11:32:00,52.2,35.6,29.79,North,0,3.0,3.0,53,0.00,,CLR,0.00,107.00,VWS V14.01,2013-04-01 15:32:00,
2013-04-01 11:37:00,52.6,35.0,29.79,NNW,342,6.0,12.0,51,0.00,,CLR,0.00,118.00,VWS V14.01,2013-04-01 15:37:00,
2013-04-01 11:42:00,52.5,34.9,29.79,WNW,295,11.0,13.0,51,0.00,,CLR,0.00,169.00,VWS V14.01,2013-04-01 15:42:00,
2013-04-01 11:48:00,52.3,34.2,29.80,NNW,337,6.0,14.0,50,0.00,,CLR,0.00,148.00,VWS V14.01,2013-04-01 15:48:00,
2013-04-01 11:53:00,51.6,35.5,29.80,North,0,16.0,19.0,54,0.00,,CLR,0.00,188.00,VWS V14.01,2013-04-01 15:53:00,
2013-04-01 11:58:00,50.9,36.2,29.80,North,0,9.0,19.0,57,0.00,,CLR,0.00,238.00,VWS V14.01,2013-04-01 15:58:00,
2013-04-01 12:03:00,50.6,35.9,29.80,North,349,7.0,11.0,57,0.00,,CLR,0.00,223.00,VWS V14.01,2013-04-01 16:03:00,
2013-04-01 12:08:00,51.3,35.7,29.80,NNW,335,6.0,14.0,55,0.00,,CLR,0.00,260.00,VWS V14.01,2013-04-01 16:08:00,
2013-04-01 12:13:00,51.8,33.8,29.80,NNW,333,8.0,13.0,50,0.00,,CLR,0.00,304.00,VWS V14.01,2013-04-01 16:13:00,
2013-04-01 12:18:00,52.2,33.6,29.81,North,0,10.0,19.0,49,0.00,,CLR,0.00,350.00,VWS V14.01,2013-04-01 16:18:00,
2013-04-01 12:23:00,51.3,36.6,29.81,North,356,9.0,12.0,57,0.00,,CLR,0.00,299.00,VWS V14.01,2013-04-01 16:23:00,
2013-04-01 12:28:00,50.6,37.2,29.81,North,8,8.0,15.0,60,0.00,,CLR,0.00,887.00,VWS V14.01,2013-04-01 16:28:00,
2013-04-01 12:33:00,50.6,37.2,29.82,NE,45,9.0,13.0,60,0.00,,CLR,0.00,931.00,VWS V14.01,2013-04-01 16:33:00,
2013-04-01 12:38:00,50.7,38.2,29.82,North,0,10.0,14.0,62,0.00,,CLR,0.00,890.00,VWS V14.01,2013-04-01 16:38:00,
2013-04-01 12:43:00,51.2,38.6,29.82,North,8,16.0,16.0,62,0.00,,CLR,0.00,897.00,VWS V14.01,2013-04-01 16:43:00,
2013-04-01 12:49:00,51.3,36.6,29.82,NE,37,12.0,17.0,57,0.00,,CLR,0.00,901.00,VWS V14.01,2013-04-01 16:49:00,
2013-04-01 12:54:00,50.7,36.5,29.82,North,349,7.0,14.0,58,0.00,,CLR,0.00,260.00,VWS V14.01,2013-04-01 16:54:00,
2013-04-01 12:59:00,49.7,35.5,29.82,North,0,12.0,17.0,58,0.00,,CLR,0.00,262.00,VWS V14.01,2013-04-01 16:59:00,
2013-04-01 13:04:00,49.2,35.1,29.83,North,11,17.0,19.0,58,0.00,,CLR,0.00,311.00,VWS V14.01,2013-04-01 17:04:00,
2013-04-01 13:09:00,49.1,35.0,29.83,North,0,14.0,19.0,58,0.00,,CLR,0.00,313.00,VWS V14.01,2013-04-01 17:09:00,
2013-04-01 13:14:00,48.9,33.9,29.83,North,0,14.0,21.0,56,0.00,,CLR,0.00,283.00,VWS V14.01,2013-04-01 17:14:00,
2013-04-01 13:19:00,48.5,34.4,29.84,North,0,11.0,21.0,58,0.00,,CLR,0.00,310.00,VWS V14.01,2013-04-01 17:19:00,
2013-04-01 13:25:00,48.2,34.1,29.84,North,0,8.0,19.0,58,0.00,,CLR,0.00,318.00,VWS V14.01,2013-04-01 17:25:00,
2013-04-01 13:30:00,48.4,34.3,29.84,North,354,8.0,19.0,58,0.00,,CLR,0.00,341.00,VWS V14.01,2013-04-01 17:30:00,
2013-04-01 13:35:00,47.9,34.7,29.84,NNW,333,11.0,13.0,60,0.00,,CLR,0.00,248.00,VWS V14.01,2013-04-01 17:35:00,
2013-04-01 13:40:00,47.8,34.2,29.84,North,0,6.0,14.0,59,0.00,,CLR,0.00,296.00,VWS V14.01,2013-04-01 17:40:00,
2013-04-01 13:45:00,47.8,35.0,29.84,North,356,13.0,13.0,61,0.00,,CLR,0.00,311.00,VWS V14.01,2013-04-01 17:45:00,
2013-04-01 13:50:00,47.5,33.9,29.85,NNE,32,11.0,16.0,59,0.00,,CLR,0.00,259.00,VWS V14.01,2013-04-01 17:50:00,
2013-04-01 13:55:00,47.0,33.4,29.85,North,1,12.0,15.0,59,0.00,,CLR,0.00,248.00,VWS V14.01,2013-04-01 17:55:00,
2013-04-01 14:00:00,46.4,32.4,29.85,NNE,13,9.0,18.0,58,0.00,,CLR,0.00,211.00,VWS V14.01,2013-04-01 18:00:00,
2013-04-01 14:05:00,46.1,31.7,29.87,WNW,282,11.0,19.0,57,0.00,,CLR,0.00,202.00,VWS V14.01,2013-04-01 18:05:00,
2013-04-01 14:10:00,46.4,32.4,29.87,North,0,10.0,21.0,58,0.00,,CLR,0.00,274.00,VWS V14.01,2013-04-01 18:10:00,
2013-04-01 14:15:00,46.9,32.5,29.87,North,0,7.0,18.0,57,0.00,,CLR,0.00,274.00,VWS V14.01,2013-04-01 18:15:00,
2013-04-01 14:21:00,47.6,32.2,29.87,North,0,10.0,22.0,55,0.00,,CLR,0.00,874.00,VWS V14.01,2013-04-01 18:21:00,
2013-04-01 14:26:00,48.5,34.0,29.87,NW,323,19.0,19.0,57,0.00,,CLR,0.00,795.00,VWS V14.01,2013-04-01 18:26:00,
2013-04-01 14:31:00,48.6,32.7,29.87,NNW,343,19.0,19.0,54,0.00,,CLR,0.00,818.00,VWS V14.01,2013-04-01 18:31:00,
2013-04-01 14:37:00,47.9,34.3,29.87,NNE,24,13.0,17.0,59,0.00,,CLR,0.00,787.00,VWS V14.01,2013-04-01 18:37:00,
2013-04-01 14:42:00,45.7,33.4,29.87,NNE,28,8.0,8.0,62,0.00,,CLR,0.00,250.00,VWS V14.01,2013-04-01 18:42:00,
2013-04-01 14:47:00,44.5,32.7,29.89,North,0,7.0,13.0,63,0.00,,CLR,0.00,259.00,VWS V14.01,2013-04-01 18:47:00,
2013-04-01 14:52:00,44.8,33.0,29.89,NNE,21,8.0,8.0,63,0.00,,CLR,0.00,392.00,VWS V14.01,2013-04-01 18:52:00,
2013-04-01 14:58:00,45.2,31.7,29.89,NNE,13,9.0,14.0,59,0.00,,CLR,0.00,505.00,VWS V14.01,2013-04-01 18:58:00,
2013-04-01 15:03:00,45.4,30.2,29.89,NNW,332,13.0,14.0,55,0.00,,CLR,0.00,648.00,VWS V14.01,2013-04-01 19:03:00,
2013-04-01 15:08:00,46.0,32.1,29.89,NW,325,5.0,14.0,58,0.00,,CLR,0.00,735.00,VWS V14.01,2013-04-01 19:08:00,
2013-04-01 15:13:00,46.4,32.0,29.89,North,11,5.0,14.0,57,0.00,,CLR,0.00,677.00,VWS V14.01,2013-04-01 19:13:00,
2013-04-01 15:18:00,46.6,32.6,29.89,North,356,8.0,14.0,58,0.00,,CLR,0.00,730.00,VWS V14.01,2013-04-01 19:18:00,
2013-04-01 15:23:00,46.7,32.3,29.89,North,0,8.0,8.0,57,0.00,,CLR,0.00,727.00,VWS V14.01,2013-04-01 19:23:00,
2013-04-01 15:28:00,46.6,31.3,29.89,North,11,6.0,13.0,55,0.00,,CLR,0.00,727.00,VWS V14.01,2013-04-01 19:28:00,
2013-04-01 15:33:00,46.3,31.5,29.90,North,0,5.0,8.0,56,0.00,,CLR,0.00,290.00,VWS V14.01,2013-04-01 19:33:00,
2013-04-01 15:39:00,45.5,29.8,29.90,North,0,7.0,19.0,54,0.00,,CLR,0.00,208.00,VWS V14.01,2013-04-01 19:39:00,
2013-04-01 15:44:00,44.8,29.6,29.90,North,356,12.0,13.0,55,0.00,,CLR,0.00,202.00,VWS V14.01,2013-04-01 19:44:00,
2013-04-01 15:49:00,45.1,28.1,29.91,NW,320,8.0,18.0,51,0.00,,CLR,0.00,785.00,VWS V14.01,2013-04-01 19:49:00,
2013-04-01 15:54:00,45.2,28.2,29.91,NNW,339,11.0,19.0,51,0.00,,CLR,0.00,216.00,VWS V14.01,2013-04-01 19:54:00,
2013-04-01 15:59:00,45.7,27.1,29.91,NNW,340,16.0,22.0,48,0.01,,CLR,0.01,753.00,VWS V14.01,2013-04-01 19:59:00,
2013-04-01 16:04:00,46.7,28.1,29.90,NW,325,20.0,20.0,48,0.01,,CLR,0.01,739.00,VWS V14.01,2013-04-01 20:04:00,
2013-04-01 16:09:00,47.3,28.1,29.90,North,0,8.0,20.0,47,0.01,,CLR,0.01,727.00,VWS V14.01,2013-04-01 20:09:00,
2013-04-01 16:14:00,47.8,27.0,29.90,WNW,301,19.0,19.0,44,0.01,,CLR,0.01,702.00,VWS V14.01,2013-04-01 20:14:00,
2013-04-01 16:19:00,47.3,26.5,29.89,NW,322,6.0,20.0,44,0.01,,CLR,0.01,721.00,VWS V14.01,2013-04-01 20:19:00,
2013-04-01 16:24:00,46.7,26.5,29.89,North,350,6.0,18.0,45,0.01,,CLR,0.01,809.00,VWS V14.01,2013-04-01 20:24:00,
2013-04-01 16:29:00,47.0,27.3,29.89,North,0,11.0,18.0,46,0.01,,CLR,0.01,809.00,VWS V14.01,2013-04-01 20:29:00,
2013-04-01 16:35:00,47.5,29.3,29.89,NNW,333,12.0,12.0,49,0.01,,CLR,0.01,727.00,VWS V14.01,2013-04-01 20:35:00,
2013-04-01 16:40:00,47.0,27.8,29.89,NNW,329,7.0,13.0,47,0.01,,CLR,0.01,167.00,VWS V14.01,2013-04-01 20:40:00,
2013-04-01 16:45:00,47.0,29.3,29.89,North,0,6.0,9.0,50,0.01,,CLR,0.01,702.00,VWS V14.01,2013-04-01 20:45:00,
2013-04-01 16:50:00,46.4,30.2,29.89,North,10,5.0,13.0,53,0.01,,CLR,0.01,702.00,VWS V14.01,2013-04-01 20:50:00,
2013-04-01 16:55:00,45.7,28.1,29.89,NNE,13,12.0,12.0,50,0.01,,CLR,0.01,176.00,VWS V14.01,2013-04-01 20:55:00,
2013-04-01 17:00:00,45.1,27.6,29.89,North,0,6.0,17.0,50,0.01,,CLR,0.01,179.00,VWS V14.01,2013-04-01 21:00:00,
2013-04-01 17:05:00,44.7,29.1,29.90,North,7,8.0,12.0,54,0.00,,CLR,0.01,157.00,VWS V14.01,2013-04-01 21:05:00,
2013-04-01 17:10:00,44.2,29.1,29.90,NE,34,10.0,13.0,55,0.00,,CLR,0.01,123.00,VWS V14.01,2013-04-01 21:10:00,
2013-04-01 17:15:00,43.6,29.8,29.90,NNE,28,7.0,13.0,58,0.00,,CLR,0.01,158.00,VWS V14.01,2013-04-01 21:15:00,
2013-04-01 17:20:00,43.2,29.9,29.91,NNE,16,9.0,14.0,59,0.00,,CLR,0.01,109.00,VWS V14.01,2013-04-01 21:20:00,
2013-04-01 17:26:00,42.9,29.6,29.91,North,7,7.0,14.0,59,0.00,,CLR,0.01,107.00,VWS V14.01,2013-04-01 21:26:00,
2013-04-01 17:31:00,42.8,29.5,29.91,North,0,5.0,14.0,59,0.00,,CLR,0.01,114.00,VWS V14.01,2013-04-01 21:31:00,
2013-04-01 17:36:00,42.9,29.6,29.91,NNE,30,4.0,7.0,59,0.00,,CLR,0.01,141.00,VWS V14.01,2013-04-01 21:36:00,
2013-04-01 17:42:00,43.6,30.2,29.91,NNE,25,4.0,8.0,59,0.00,,CLR,0.01,413.00,VWS V14.01,2013-04-01 21:42:00,
2013-04-01 17:47:00,44.7,28.2,29.91,NNW,329,12.0,16.0,52,0.00,,CLR,0.01,355.00,VWS V14.01,2013-04-01 21:47:00,
2013-04-01 17:52:00,45.1,28.1,29.91,North,0,11.0,16.0,51,0.00,,CLR,0.01,350.00,VWS V14.01,2013-04-01 21:52:00,
2013-04-01 17:57:00,45.2,27.2,29.91,North,0,8.0,12.0,49,0.00,,CLR,0.01,317.00,VWS V14.01,2013-04-01 21:57:00,
2013-04-01 18:02:00,45.4,26.9,29.91,North,349,5.0,7.0,48,0.00,,CLR,0.01,292.00,VWS V14.01,2013-04-01 22:02:00,
2013-04-01 18:07:00,45.2,25.7,29.91,NW,316,6.0,14.0,46,0.00,,CLR,0.01,62.00,VWS V14.01,2013-04-01 22:07:00,
2013-04-01 18:12:00,44.4,25.5,29.91,North,8,8.0,8.0,47,0.00,,CLR,0.01,55.00,VWS V14.01,2013-04-01 22:12:00,
2013-04-01 18:17:00,43.8,25.4,29.92,North,357,4.0,18.0,48,0.00,,CLR,0.01,55.00,VWS V14.01,2013-04-01 22:17:00,
2013-04-01 18:22:00,43.5,25.6,29.92,North,0,10.0,10.0,49,0.00,,CLR,0.01,63.00,VWS V14.01,2013-04-01 22:22:00,
2013-04-01 18:27:00,43.3,23.9,29.92,North,0,6.0,13.0,46,0.00,,CLR,0.01,62.00,VWS V14.01,2013-04-01 22:27:00,
2013-04-01 18:32:00,43.3,24.4,29.93,North,0,3.0,3.0,47,0.00,,CLR,0.01,60.00,VWS V14.01,2013-04-01 22:32:00,
2013-04-01 18:37:00,43.3,24.9,29.93,NNE,20,8.0,17.0,48,0.00,,CLR,0.01,56.00,VWS V14.01,2013-04-01 22:37:00,
2013-04-01 18:43:00,43.3,23.9,29.93,NNE,14,12.0,12.0,46,0.00,,CLR,0.01,60.00,VWS V14.01,2013-04-01 22:43:00,
2013-04-01 18:48:00,43.8,24.4,29.92,NW,325,6.0,12.0,46,0.00,,CLR,0.01,172.00,VWS V14.01,2013-04-01 22:48:00,
2013-04-01 18:53:00,44.1,24.7,29.92,NW,315,8.0,11.0,46,0.00,,CLR,0.01,116.00,VWS V14.01,2013-04-01 22:53:00,
2013-04-01 18:58:00,43.9,25.5,29.92,North,0,5.0,11.0,48,0.00,,CLR,0.01,91.00,VWS V14.01,2013-04-01 22:58:00,
2013-04-01 19:03:00,43.6,24.7,29.93,NNW,343,6.0,9.0,47,0.00,,CLR,0.01,28.00,VWS V14.01,2013-04-01 23:03:00,
2013-04-01 19:09:00,43.1,24.8,29.93,NW,305,10.0,12.0,48,0.00,,CLR,0.01,63.00,VWS V14.01,2013-04-01 23:09:00,
2013-04-01 19:14:00,43.1,24.8,29.93,NW,323,4.0,9.0,48,0.00,,CLR,0.01,46.00,VWS V14.01,2013-04-01 23:14:00,
2013-04-01 19:19:00,42.8,24.5,29.92,NW,309,5.0,9.0,48,0.00,,CLR,0.01,18.00,VWS V14.01,2013-04-01 23:19:00,
2013-04-01 19:24:00,42.3,24.5,29.92,North,0,5.0,10.0,49,0.00,,CLR,0.01,16.00,VWS V14.01,2013-04-01 23:24:00,
2013-04-01 19:29:00,42.1,24.3,29.92,NW,306,2.0,10.0,49,0.00,,CLR,0.01,11.00,VWS V14.01,2013-04-01 23:29:00,
2013-04-01 19:34:00,41.8,24.5,29.93,NNW,332,4.0,7.0,50,0.00,,CLR,0.01,9.00,VWS V14.01,2013-04-01 23:34:00,
2013-04-01 19:39:00,41.6,23.9,29.93,NW,323,3.0,10.0,49,0.00,,CLR,0.01,7.00,VWS V14.01,2013-04-01 23:39:00,
2013-04-01 19:44:00,41.8,23.6,29.93,NNW,336,1.0,7.0,48,0.00,,CLR,0.01,0.00,VWS V14.01,2013-04-01 23:44:00,
2013-04-01 19:49:00,41.6,23.4,29.93,NNW,339,6.0,11.0,48,0.00,,CLR,0.01,0.00,VWS V14.01,2013-04-01 23:49:00,
2013-04-01 19:54:00,41.8,23.6,29.93,NNW,343,4.0,7.0,48,0.00,,CLR,0.01,0.00,VWS V14.01,2013-04-01 23:54:00,
2013-04-01 19:59:00,41.8,23.6,29.93,North,0,2.0,7.0,48,0.00,,CLR,0.01,0.00,VWS V14.01,2013-04-01 23:59:00,
2013-04-01 20:04:00,41.6,23.9,29.94,NW,319,0.0,6.0,49,0.00,,CLR,0.01,0.00,VWS V14.01,2013-04-02 00:04:00,
2013-04-01 20:09:00,41.5,23.8,29.94,NNW,340,7.0,7.0,49,0.00,,CLR,0.01,0.00,VWS V14.01,2013-04-02 00:09:00,
2013-04-01 20:14:00,41.5,23.8,29.94,NNW,347,3.0,5.0,49,0.00,,CLR,0.01,0.00,VWS V14.01,2013-04-02 00:14:00,
2013-04-01 20:20:00,41.3,23.6,29.94,NNW,347,1.0,7.0,49,0.00,,CLR,0.01,0.00,VWS V14.01,2013-04-02 00:20:00,
2013-04-01 20:25:00,41.1,22.4,29.94,NNW,336,2.0,8.0,47,0.00,,CLR,0.01,0.00,VWS V14.01,2013-04-02 00:25:00,
2013-04-01 20:30:00,41.1,22.9,29.94,North,0,5.0,8.0,48,0.00,,CLR,0.01,0.00,VWS V14.01,2013-04-02 00:30:00,
2013-04-01 20:35:00,40.8,23.6,29.94,North,0,2.0,3.0,50,0.00,,CLR,0.01,0.00,VWS V14.01,2013-04-02 00:35:00,
2013-04-01 20:40:00,40.8,20.6,29.94,North,0,5.0,8.0,44,0.00,,CLR,0.01,0.00,VWS V14.01,2013-04-02 00:40:00,
2013-04-01 20:45:00,40.8,20.0,29.94,NNE,16,5.0,9.0,43,0.00,,CLR,0.01,0.00,VWS V14.01,2013-04-02 00:45:00,
2013-04-01 20:50:00,40.9,19.0,29.95,North,349,5.0,11.0,41,0.00,,CLR,0.01,0.00,VWS V14.01,2013-04-02 00:50:00,
2013-04-01 20:56:00,40.9,19.0,29.95,NNE,16,6.0,11.0,41,0.00,,CLR,0.01,0.00,VWS V14.01,2013-04-02 00:56:00,
2013-04-01 21:01:00,41.2,16.9,29.95,North,0,12.0,12.0,37,0.00,,CLR,0.01,0.00,VWS V14.01,2013-04-02 01:01:00,
2013-04-01 21:06:00,41.5,17.2,29.96,North,356,6.0,12.0,37,0.00,,CLR,0.01,0.00,VWS V14.01,2013-04-02 01:06:00,
2013-04-01 21:11:00,41.6,15.3,29.96,NNE,21,7.0,19.0,34,0.00,,CLR,0.01,0.00,VWS V14.01,2013-04-02 01:11:00,
2013-04-01 21:16:00,41.5,15.2,29.97,North,0,5.0,12.0,34,0.00,,CLR,0.01,0.00,VWS V14.01,2013-04-02 01:16:00,
2013-04-01 21:21:00,41.3,15.7,29.97,North,10,11.0,12.0,35,0.00,,CLR,0.01,0.00,VWS V14.01,2013-04-02 01:21:00,
2013-04-01 21:26:00,41.2,15.0,29.97,North,356,14.0,17.0,34,0.00,,CLR,0.01,0.00,VWS V14.01,2013-04-02 01:26:00,
2013-04-01 21:32:00,41.2,15.6,29.97,NNW,340,5.0,17.0,35,0.00,,CLR,0.01,0.00,VWS V14.01,2013-04-02 01:32:00,
2013-04-01 21:37:00,41.1,15.6,29.97,NNW,337,7.0,12.0,35,0.00,,CLR,0.01,0.00,VWS V14.01,2013-04-02 01:37:00,
2013-04-01 21:42:00,40.8,15.3,29.97,North,6,4.0,12.0,35,0.00,,CLR,0.01,0.00,VWS V14.01,2013-04-02 01:42:00,
2013-04-01 21:47:00,40.5,16.3,29.98,North,359,3.0,10.0,37,0.00,,CLR,0.01,0.00,VWS V14.01,2013-04-02 01:47:00,
2013-04-01 21:52:00,40.2,16.0,29.98,North,0,2.0,5.0,37,0.00,,CLR,0.01,0.00,VWS V14.01,2013-04-02 01:52:00,
2013-04-01 21:57:00,39.8,17.5,29.98,NNW,346,1.0,5.0,40,0.00,,CLR,0.01,0.00,VWS V14.01,2013-04-02 01:57:00,
2013-04-01 22:02:00,39.6,16.7,29.99,North,0,1.0,1.0,39,0.00,,CLR,0.01,0.00,VWS V14.01,2013-04-02 02:02:00,
2013-04-01 22:08:00,39.2,15.7,29.99,NNE,30,2.0,6.0,38,0.00,,CLR,0.01,0.00,VWS V14.01,2013-04-02 02:08:00,
2013-04-01 22:13:00,38.9,16.1,29.99,NNE,31,8.0,16.0,39,0.00,,CLR,0.01,0.00,VWS V14.01,2013-04-02 02:13:00,
2013-04-01 22:18:00,39.1,15.0,29.99,North,3,7.0,16.0,37,0.00,,CLR,0.01,0.00,VWS V14.01,2013-04-02 02:18:00,
2013-04-01 22:23:00,39.2,13.9,29.99,North,7,7.0,7.0,35,0.00,,CLR,0.01,0.00,VWS V14.01,2013-04-02 02:23:00,
2013-04-01 22:28:00,39.3,15.2,29.99,NW,323,6.0,11.0,37,0.00,,CLR,0.01,0.00,VWS V14.01,2013-04-02 02:28:00,
2013-04-01 22:33:00,39.3,14.6,30.00,North,11,3.0,8.0,36,0.00,,CLR,0.01,0.00,VWS V14.01,2013-04-02 02:33:00,
2013-04-01 22:38:00,39.3,15.2,30.00,North,0,6.0,12.0,37,0.00,,CLR,0.01,0.00,VWS V14.01,2013-04-02 02:38:00,
2013-04-01 22:43:00,39.3,15.2,30.00,North,0,3.0,8.0,37,0.00,,CLR,0.01,0.00,VWS V14.01,2013-04-02 02:43:00,
2013-04-01 22:49:00,39.2,15.1,30.00,North,6,2.0,8.0,37,0.00,,CLR,0.01,0.00,VWS V14.01,2013-04-02 02:49:00,
2013-04-01 22:54:00,38.9,15.5,30.00,NE,48,0.0,1.0,38,0.00,,CLR,0.01,0.00,VWS V14.01,2013-04-02 02:54:00,
2013-04-01 22:59:00,38.6,14.6,30.00,NE,37,3.0,10.0,37,0.00,,CLR,0.01,0.00,VWS V14.01,2013-04-02 02:59:00,
2013-04-01 23:04:00,38.6,14.6,30.01,NNE,30,3.0,3.0,37,0.00,,CLR,0.01,0.00,VWS V14.01,2013-04-02 03:04:00,
2013-04-01 23:09:00,38.5,15.1,30.01,ENE,58,5.0,5.0,38,0.00,,CLR,0.01,0.00,VWS V14.01,2013-04-02 03:09:00,
2013-04-01 23:14:00,38.2,15.4,30.01,NNE,23,2.0,3.0,39,0.00,,CLR,0.01,0.00,VWS V14.01,2013-04-02 03:14:00,
2013-04-01 23:19:00,38.1,14.1,30.01,NE,45,5.0,7.0,37,0.00,,CLR,0.01,0.00,VWS V14.01,2013-04-02 03:19:00,
2013-04-01 23:24:00,38.2,14.8,30.01,North,0,1.0,6.0,38,0.00,,CLR,0.01,0.00,VWS V14.01,2013-04-02 03:24:00,
2013-04-01 23:29:00,38.1,15.9,30.01,NE,44,1.0,6.0,40,0.00,,CLR,0.01,0.00,VWS V14.01,2013-04-02 03:29:00,
2013-04-01 23:34:00,37.8,15.1,30.01,North,0,3.0,5.0,39,0.00,,CLR,0.01,0.00,VWS V14.01,2013-04-02 03:34:00,
2013-04-01 23:39:00,37.5,15.4,30.01,NNE,16,3.0,6.0,40,0.00,,CLR,0.01,0.00,VWS V14.01,2013-04-02 03:39:00,
2013-04-01 23:44:00,37.5,14.8,30.01,NNE,24,0.0,0.0,39,0.00,,CLR,0.01,0.00,VWS V14.01,2013-04-02 03:44:00,
2013-04-01 23:50:00,37.5,14.8,30.02,NNW,347,6.0,12.0,39,0.00,,CLR,0.01,0.00,VWS V14.01,2013-04-02 03:50:00,
2013-04-01 23:55:00,37.6,14.9,30.02,North,0,2.0,7.0,39,0.00,,CLR,0.01,0.00,VWS V14.01,2013-04-02 03:55:00,